| time (UTC) | temp F | wind direction | speed knots | gust knots | rain 1hr in | rain 24hr in | rain mn in | humidity % | barometer mb |
| 20260902202025 | 84 | 134 | 1.7 | 6.1 | 0.00 | 0.00 | 0.00 | 29 | 1008.6 |
| 20260902201556 | 83 | 196 | 1.7 | 6.1 | 0.00 | 0.00 | 0.00 | 30 | 1008.6 |
| 20260902201024 | 83 | 210 | 2.6 | 6.1 | 0.00 | 0.00 | 0.00 | 30 | 1008.6 |
| 20260902200526 | 83 | 154 | 3.5 | 5.2 | 0.00 | 0.00 | 0.00 | 31 | 1008.8 |
| 20260902200049 | 83 | 103 | 0.9 | 7.0 | 0.00 | 0.00 | 0.00 | 32 | 1008.7 |
| 20260902195527 | 83 | 212 | 1.7 | 7.0 | 0.00 | 0.00 | 0.00 | 30 | 1008.8 |
| 20260902195027 | 83 | 155 | 4.3 | 7.0 | 0.00 | 0.00 | 0.00 | 30 | 1008.9 |
| 20260902194548 | 82 | 188 | 3.5 | 9.6 | 0.00 | 0.00 | 0.00 | 31 | 1008.9 |
| 20260902194027 | 82 | 195 | 2.6 | 11.3 | 0.00 | 0.00 | 0.00 | 33 | 1008.9 |
| 20260902193525 | 82 | 85 | 5.2 | 11.3 | 0.00 | 0.00 | 0.00 | 31 | 1008.9 |
| 20260902193046 | 83 | 139 | 2.6 | 8.7 | 0.00 | 0.00 | 0.00 | 33 | 1009.1 |
| 20260902192525 | 83 | 211 | 1.7 | 10.4 | 0.00 | 0.00 | 0.00 | 37 | 1009.1 |
| 20260902192030 | 83 | 173 | 3.5 | 13.0 | 0.00 | 0.00 | 0.00 | 30 | 1009.2 |
| 20260902191556 | 83 | 136 | 5.2 | 13.0 | 0.00 | 0.00 | 0.00 | 30 | 1009.3 |
| 20260902191029 | 83 | 129 | 4.3 | 11.3 | 0.00 | 0.00 | 0.00 | 32 | 1009.2 |
| 20260902190527 | 83 | 198 | 5.2 | 11.3 | 0.00 | 0.00 | 0.00 | 33 | 1009.4 |
| 20260902190053 | 83 | 240 | 4.3 | 12.2 | 0.00 | 0.00 | 0.00 | 34 | 1009.3 |
| 20260902185526 | 82 | 190 | 4.3 | 12.2 | 0.00 | 0.00 | 0.00 | 39 | 1009.5 |
| 20260902185028 | 82 | 174 | 4.3 | 12.2 | 0.00 | 0.00 | 0.00 | 32 | 1009.6 |
| 20260902184608 | 82 | 97 | 4.3 | 9.6 | 0.00 | 0.00 | 0.00 | 35 | 1009.7 |
| 20260902184028 | 82 | 120 | 4.3 | 9.6 | 0.00 | 0.00 | 0.00 | 35 | 1009.8 |
| 20260902183526 | 82 | 120 | 4.3 | 10.4 | 0.00 | 0.00 | 0.00 | 34 | 1010.0 |
| 20260902183044 | 82 | 146 | 4.3 | 10.4 | 0.00 | 0.00 | 0.00 | 36 | 1010.0 |
| 20260902182525 | 81 | 152 | 4.3 | 12.2 | 0.00 | 0.00 | 0.00 | 35 | 1010.0 |
| 20260902182026 | 81 | 113 | 2.6 | 12.2 | 0.00 | 0.00 | 0.00 | 38 | 1010.1 |
| 20260902181546 | 81 | 76 | 3.5 | 8.7 | 0.00 | 0.00 | 0.00 | 37 | 1010.1 |
| 20260902181025 | 80 | 124 | 3.5 | 8.7 | 0.00 | 0.00 | 0.00 | 36 | 1010.3 |
| 20260902180527 | 80 | 118 | 3.5 | 7.8 | 0.00 | 0.00 | 0.00 | 38 | 1010.3 |
| 20260902180043 | 80 | 60 | 4.3 | 8.7 | 0.00 | 0.00 | 0.00 | 34 | 1010.4 |
| 20260902175525 | 80 | 106 | 4.3 | 8.7 | 0.00 | 0.00 | 0.00 | 37 | 1010.6 |
| 20260902175028 | 80 | 101 | 4.3 | 9.6 | 0.00 | 0.00 | 0.00 | 36 | 1010.8 |
| 20260902174554 | 80 | 75 | 4.3 | 9.6 | 0.00 | 0.00 | 0.00 | 37 | 1010.7 |
| 20260902174027 | 80 | 106 | 2.6 | 8.7 | 0.00 | 0.00 | 0.00 | 41 | 1010.9 |
| 20260902173527 | 80 | 127 | 2.6 | 8.7 | 0.00 | 0.00 | 0.00 | 37 | 1011.0 |
| 20260902173045 | 79 | 108 | 2.6 | 8.7 | 0.00 | 0.00 | 0.00 | 42 | 1011.0 |
| 20260902172526 | 79 | 176 | 3.5 | 7.8 | 0.00 | 0.00 | 0.00 | 40 | 1011.0 |
| 20260902172026 | 79 | 112 | 3.5 | 6.1 | 0.00 | 0.00 | 0.00 | 39 | 1011.2 |
| 20260902171559 | 79 | 87 | 2.6 | 7.0 | 0.00 | 0.00 | 0.00 | 39 | 1011.1 |
| 20260902171025 | 78 | 144 | 2.6 | 7.0 | 0.00 | 0.00 | 0.00 | 40 | 1011.2 |
| 20260902170527 | 78 | 101 | 2.6 | 7.8 | 0.00 | 0.00 | 0.00 | 39 | 1011.2 |
| 20260902170043 | 78 | 139 | 2.6 | 7.8 | 0.00 | 0.00 | 0.00 | 40 | 1011.4 |
| 20260902165525 | 77 | 100 | 2.6 | 7.8 | 0.00 | 0.00 | 0.00 | 40 | 1011.3 |
| 20260902165026 | 77 | 150 | 3.5 | 7.8 | 0.00 | 0.00 | 0.00 | 40 | 1011.4 |
| 20260902164554 | 77 | 103 | 3.5 | 7.8 | 0.00 | 0.00 | 0.00 | 42 | 1011.4 |
| 20260902164024 | 77 | 127 | 3.5 | 7.8 | 0.00 | 0.00 | 0.00 | 41 | 1011.5 |
| 20260902163525 | 76 | 165 | 3.5 | 7.8 | 0.00 | 0.00 | 0.00 | 44 | 1011.4 |
| 20260902163047 | 76 | 105 | 4.3 | 7.8 | 0.00 | 0.00 | 0.00 | 42 | 1011.5 |
| 20260902162530 | 75 | 105 | 2.6 | 9.6 | 0.00 | 0.00 | 0.00 | 43 | 1011.4 |
| 20260902162026 | 75 | 148 | 4.3 | 9.6 | 0.00 | 0.00 | 0.00 | 44 | 1011.5 |
| 20260902161544 | 75 | 122 | 3.5 | 7.8 | 0.00 | 0.00 | 0.00 | 44 | 1011.6 |
| 20260902161029 | 74 | 139 | 2.6 | 6.1 | 0.00 | 0.00 | 0.00 | 46 | 1011.7 |
| 20260902160527 | 73 | 96 | 2.6 | 5.2 | 0.00 | 0.00 | 0.00 | 48 | 1011.9 |
| 20260902160050 | 73 | 109 | 0.9 | 8.7 | 0.00 | 0.00 | 0.00 | 48 | 1011.9 |
| 20260902155527 | 73 | 90 | 2.6 | 8.7 | 0.00 | 0.00 | 0.00 | 46 | 1011.9 |
| 20260902155030 | 73 | 68 | 3.5 | 8.7 | 0.00 | 0.00 | 0.00 | 44 | 1011.9 |
| 20260902154547 | 73 | 122 | 2.6 | 7.0 | 0.00 | 0.00 | 0.00 | 48 | 1011.8 |
| 20260902154025 | 72 | 77 | 3.5 | 7.0 | 0.00 | 0.00 | 0.00 | 48 | 1011.9 |
| 20260902153528 | 71 | 46 | 0.9 | 4.3 | 0.00 | 0.00 | 0.00 | 53 | 1012.0 |
| 20260902153044 | 71 | 105 | 0.9 | 4.3 | 0.00 | 0.00 | 0.00 | 52 | 1012.0 |
| 20260902152525 | 70 | 106 | 0.9 | 2.6 | 0.00 | 0.00 | 0.00 | 55 | 1012.1 |
| 20260902152025 | 69 | 61 | 0.9 | 2.6 | 0.00 | 0.00 | 0.00 | 56 | 1012.2 |
| 20260902151552 | 68 | 0 | 0.0 | 2.6 | 0.00 | 0.00 | 0.00 | 56 | 1012.4 |
| 20260902151026 | 67 | 324 | 0.0 | 2.6 | 0.00 | 0.00 | 0.00 | 58 | 1012.4 |
| 20260902150526 | 66 | 323 | 0.9 | 2.6 | 0.00 | 0.00 | 0.00 | 58 | 1012.4 |
| 20260902150044 | 66 | 1 | 0.0 | 2.6 | 0.00 | 0.00 | 0.00 | 58 | 1012.4 |
| 20260902145525 | 65 | 332 | 0.9 | 2.6 | 0.00 | 0.00 | 0.00 | 60 | 1012.6 |
| 20260902145026 | 65 | 0 | 0.0 | 2.6 | 0.00 | 0.00 | 0.00 | 60 | 1012.6 |
| 20260902144554 | 64 | 9 | 0.9 | 2.6 | 0.00 | 0.00 | 0.00 | 60 | 1012.6 |
| 20260902144024 | 64 | 0 | 0.0 | 3.5 | 0.00 | 0.00 | 0.00 | 61 | 1012.7 |
| 20260902143525 | 63 | 303 | 0.9 | 3.5 | 0.00 | 0.00 | 0.00 | 60 | 1012.7 |
| 20260902143044 | 63 | 100 | 1.7 | 4.3 | 0.00 | 0.00 | 0.00 | 62 | 1012.5 |
| 20260902142526 | 62 | 0 | 0.0 | 4.3 | 0.00 | 0.00 | 0.00 | 65 | 1012.5 |
| 20260902142025 | 61 | 46 | 1.7 | 4.3 | 0.00 | 0.00 | 0.00 | 64 | 1012.4 |
| 20260902141549 | 60 | 39 | 1.7 | 3.5 | 0.00 | 0.00 | 0.00 | 65 | 1012.2 |
| 20260902141025 | 59 | 40 | 0.9 | 2.6 | 0.00 | 0.00 | 0.00 | 67 | 1012.5 |
| 20260902140524 | 59 | 15 | 0.9 | 2.6 | 0.00 | 0.00 | 0.00 | 67 | 1012.6 |
| 20260902140043 | 58 | 15 | 0.0 | 3.5 | 0.00 | 0.00 | 0.00 | 68 | 1012.6 |
| 20260902135527 | 58 | 11 | 0.9 | 3.5 | 0.00 | 0.00 | 0.00 | 66 | 1012.5 |
| 20260902135024 | 58 | 80 | 0.9 | 3.5 | 0.00 | 0.00 | 0.00 | 67 | 1012.7 |
| 20260902134545 | 58 | 77 | 0.9 | 3.5 | 0.00 | 0.00 | 0.00 | 69 | 1012.8 |
| 20260902134025 | 58 | 49 | 0.9 | 3.5 | 0.00 | 0.00 | 0.00 | 69 | 1012.8 |
| 20260902133529 | 58 | 205 | 0.0 | 3.5 | 0.00 | 0.00 | 0.00 | 69 | 1012.7 |
| 20260902133056 | 58 | 53 | 1.7 | 3.5 | 0.00 | 0.00 | 0.00 | 68 | 1012.4 |
| 20260902132528 | 58 | 53 | 0.0 | 4.3 | 0.00 | 0.00 | 0.00 | 67 | 1012.5 |
| 20260902132028 | 57 | 25 | 1.7 | 5.2 | 0.00 | 0.00 | 0.00 | 69 | 1012.6 |
| 20260902131555 | 57 | 1 | 1.7 | 5.2 | 0.00 | 0.00 | 0.00 | 70 | 1012.5 |
| 20260902131026 | 55 | 44 | 2.6 | 5.2 | 0.00 | 0.00 | 0.00 | 71 | 1012.7 |
| 20260902130525 | 55 | 0 | 0.0 | 2.6 | 0.00 | 0.00 | 0.00 | 76 | 1012.8 |
| 20260902130042 | 55 | 0 | 0.9 | 2.6 | 0.00 | 0.00 | 0.00 | 75 | 1012.7 |
| 20260902125527 | 55 | 0 | 0.9 | 2.6 | 0.00 | 0.00 | 0.00 | 75 | 1012.9 |
| 20260902125026 | 55 | 322 | 0.9 | 3.5 | 0.00 | 0.00 | 0.00 | 76 | 1012.8 |
| 20260902124547 | 55 | 335 | 1.7 | 3.5 | 0.00 | 0.00 | 0.00 | 75 | 1012.6 |
| 20260902124027 | 55 | 269 | 0.9 | 2.6 | 0.00 | 0.00 | 0.00 | 74 | 1012.5 |
| 20260902123524 | 55 | 0 | 0.9 | 2.6 | 0.00 | 0.00 | 0.00 | 73 | 1012.5 |
| 20260902123045 | 56 | 271 | 0.9 | 2.6 | 0.00 | 0.00 | 0.00 | 73 | 1012.5 |
| 20260902122532 | 56 | 0 | 0.0 | 0.9 | 0.00 | 0.00 | 0.00 | 72 | 1012.4 |
| 20260902122025 | 55 | 0 | 0.0 | 2.6 | 0.00 | 0.00 | 0.00 | 70 | 1012.4 |
| 20260902121548 | 55 | 0 | 0.0 | 2.6 | 0.00 | 0.00 | 0.00 | 72 | 1012.5 |
| 20260902121026 | 54 | 129 | 0.0 | 1.7 | 0.00 | 0.00 | 0.00 | 73 | 1012.5 |
| 20260902120526 | 54 | 0 | 0.0 | 0.0 | 0.00 | 0.00 | 0.00 | 75 | 1012.7 |
| 20260902120043 | 54 | 0 | 0.0 | 0.0 | 0.00 | 0.00 | 0.00 | 75 | 1012.7 |
| 20260902115528 | 54 | 0 | 0.0 | 0.0 | 0.00 | 0.00 | 0.00 | 74 | 1012.7 |
| 20260902115029 | 54 | 0 | 0.0 | 0.0 | 0.00 | 0.00 | 0.00 | 74 | 1012.5 |
| 20260902114550 | 54 | 0 | 0.0 | 0.0 | 0.00 | 0.00 | 0.00 | 75 | 1012.5 |
| 20260902114026 | 54 | 0 | 0.0 | 0.0 | 0.00 | 0.00 | 0.00 | 75 | 1012.5 |
| 20260902113526 | 54 | 0 | 0.0 | 0.0 | 0.00 | 0.00 | 0.00 | 75 | 1012.5 |
| 20260902113053 | 54 | 0 | 0.0 | 0.9 | 0.00 | 0.00 | 0.00 | 75 | 1012.4 |
| 20260902112525 | 54 | 0 | 0.0 | 2.6 | 0.00 | 0.00 | 0.00 | 75 | 1012.4 |
| 20260902112026 | 55 | 0 | 0.0 | 2.6 | 0.00 | 0.00 | 0.00 | 75 | 1012.4 |
| 20260902111544 | 55 | 260 | 0.0 | 1.7 | 0.00 | 0.00 | 0.00 | 74 | 1012.4 |
| 20260902111026 | 55 | 0 | 0.0 | 0.0 | 0.00 | 0.00 | 0.00 | 73 | 1012.3 |
| 20260902110524 | 55 | 0 | 0.0 | 1.7 | 0.00 | 0.00 | 0.00 | 73 | 1012.4 |
| 20260902110045 | 55 | 0 | 0.0 | 2.6 | 0.00 | 0.00 | 0.00 | 74 | 1012.2 |
| 20260902105525 | 55 | 0 | 0.9 | 2.6 | 0.00 | 0.00 | 0.00 | 74 | 1012.4 |
| 20260902105028 | 55 | 104 | 0.9 | 1.7 | 0.00 | 0.00 | 0.00 | 75 | 1012.3 |
| 20260902104600 | 54 | 104 | 0.0 | 1.7 | 0.00 | 0.00 | 0.00 | 76 | 1012.2 |
| 20260902104024 | 54 | 0 | 0.0 | 1.7 | 0.00 | 0.00 | 0.00 | 76 | 1012.2 |
| 20260902103530 | 54 | 103 | 0.9 | 1.7 | 0.00 | 0.00 | 0.00 | 77 | 1012.2 |
| 20260902103042 | 54 | 0 | 0.0 | 1.7 | 0.00 | 0.00 | 0.00 | 76 | 1011.9 |
| 20260902102525 | 55 | 0 | 0.0 | 1.7 | 0.00 | 0.00 | 0.00 | 76 | 1011.9 |
| 20260902102025 | 55 | 103 | 0.9 | 1.7 | 0.00 | 0.00 | 0.00 | 76 | 1012.0 |
| 20260902101550 | 55 | 103 | 0.9 | 1.7 | 0.00 | 0.00 | 0.00 | 75 | 1012.0 |
| 20260902101025 | 55 | 105 | 0.9 | 2.6 | 0.00 | 0.00 | 0.00 | 75 | 1011.9 |
| 20260902100526 | 55 | 0 | 0.0 | 2.6 | 0.00 | 0.00 | 0.00 | 74 | 1011.9 |
| 20260902100043 | 55 | 105 | 0.9 | 2.6 | 0.00 | 0.00 | 0.00 | 75 | 1011.9 |
| 20260902095523 | 55 | 0 | 0.0 | 0.9 | 0.00 | 0.00 | 0.00 | 75 | 1011.8 |
| 20260902095025 | 55 | 0 | 0.0 | 0.0 | 0.00 | 0.00 | 0.00 | 75 | 1011.9 |
| 20260902094543 | 56 | 0 | 0.0 | 0.0 | 0.00 | 0.00 | 0.00 | 74 | 1012.0 |
| 20260902094024 | 56 | 0 | 0.0 | 0.9 | 0.00 | 0.00 | 0.00 | 73 | 1012.1 |
| 20260902093524 | 56 | 0 | 0.0 | 0.9 | 0.00 | 0.00 | 0.00 | 73 | 1012.0 |
| 20260902093048 | 56 | 0 | 0.0 | 0.9 | 0.00 | 0.00 | 0.00 | 73 | 1012.2 |
| 20260902092524 | 56 | 0 | 0.0 | 2.6 | 0.00 | 0.00 | 0.00 | 73 | 1012.2 |
| 20260902092025 | 56 | 0 | 0.0 | 2.6 | 0.00 | 0.00 | 0.00 | 73 | 1012.2 |
| 20260902091544 | 56 | 105 | 0.9 | 2.6 | 0.00 | 0.00 | 0.00 | 73 | 1012.5 |
| 20260902091024 | 57 | 0 | 0.0 | 0.9 | 0.00 | 0.00 | 0.00 | 73 | 1012.3 |
| 20260902090531 | 57 | 0 | 0.0 | 0.0 | 0.00 | 0.00 | 0.00 | 72 | 1012.2 |
| 20260902090043 | 57 | 0 | 0.0 | 1.7 | 0.00 | 0.00 | 0.00 | 72 | 1012.3 |
| 20260902085525 | 57 | 0 | 0.0 | 1.7 | 0.00 | 0.00 | 0.00 | 72 | 1012.4 |
| 20260902085024 | 58 | 323 | 0.0 | 1.7 | 0.00 | 0.00 | 0.00 | 71 | 1012.4 |
| 20260902084545 | 58 | 0 | 0.0 | 0.9 | 0.00 | 0.00 | 0.00 | 71 | 1012.5 |
| 20260902084024 | 58 | 323 | 0.0 | 1.7 | 0.00 | 0.00 | 0.00 | 71 | 1012.5 |
| 20260902083525 | 58 | 0 | 0.0 | 1.7 | 0.00 | 0.00 | 0.00 | 71 | 1012.5 |
| 20260902083112 | 58 | 323 | 0.0 | 1.7 | 0.00 | 0.00 | 0.00 | 70 | 1012.4 |
| 20260902082525 | 58 | 0 | 0.0 | 1.7 | 0.00 | 0.00 | 0.00 | 71 | 1012.4 |
| 20260902082023 | 58 | 0 | 0.0 | 1.7 | 0.00 | 0.00 | 0.00 | 71 | 1012.4 |
| 20260902081547 | 58 | 0 | 0.0 | 1.7 | 0.00 | 0.00 | 0.00 | 70 | 1012.2 |
| 20260902081025 | 58 | 0 | 0.0 | 1.7 | 0.00 | 0.00 | 0.00 | 70 | 1012.4 |
| 20260902080524 | 58 | 332 | 0.9 | 2.6 | 0.00 | 0.00 | 0.00 | 70 | 1012.2 |
| 20260902080045 | 58 | 0 | 0.0 | 3.5 | 0.00 | 0.00 | 0.00 | 71 | 1012.1 |
| 20260902075525 | 58 | 332 | 1.7 | 3.5 | 0.00 | 0.00 | 0.00 | 70 | 1012.2 |
| 20260902075026 | 58 | 1 | 0.9 | 3.5 | 0.00 | 0.00 | 0.00 | 71 | 1012.1 |
| 20260902074543 | 58 | 0 | 0.9 | 2.6 | 0.00 | 0.00 | 0.00 | 71 | 1012.2 |
| 20260902074025 | 59 | 0 | 0.0 | 2.6 | 0.00 | 0.00 | 0.00 | 70 | 1012.1 |
| 20260902073523 | 59 | 0 | 0.0 | 2.6 | 0.00 | 0.00 | 0.00 | 70 | 1012.0 |
| 20260902073054 | 59 | 12 | 0.9 | 2.6 | 0.00 | 0.00 | 0.00 | 70 | 1011.8 |
| 20260902072524 | 59 | 34 | 0.9 | 2.6 | 0.00 | 0.00 | 0.00 | 69 | 1011.9 |
| 20260902072023 | 60 | 0 | 0.0 | 2.6 | 0.00 | 0.00 | 0.00 | 69 | 1012.1 |
| 20260902071545 | 60 | 333 | 0.9 | 2.6 | 0.00 | 0.00 | 0.00 | 69 | 1012.1 |
| 20260902071026 | 60 | 168 | 0.0 | 1.7 | 0.00 | 0.00 | 0.00 | 67 | 1012.2 |
| 20260902070524 | 61 | 0 | 0.0 | 3.5 | 0.00 | 0.00 | 0.00 | 67 | 1012.5 |
| 20260902070048 | 61 | 0 | 0.0 | 3.5 | 0.00 | 0.00 | 0.00 | 67 | 1012.9 |
| 20260902065529 | 61 | 168 | 0.9 | 3.5 | 0.00 | 0.00 | 0.00 | 67 | 1012.8 |
| 20260902065023 | 62 | 338 | 0.9 | 2.6 | 0.00 | 0.00 | 0.00 | 67 | 1012.4 |
| 20260902064545 | 62 | 198 | 0.0 | 3.5 | 0.00 | 0.00 | 0.00 | 65 | 1012.5 |
| 20260902064023 | 62 | 0 | 0.9 | 5.2 | 0.00 | 0.00 | 0.00 | 66 | 1012.5 |
| 20260902063523 | 62 | 0 | 0.9 | 5.2 | 0.00 | 0.00 | 0.00 | 66 | 1012.8 |
| 20260902063046 | 62 | 186 | 0.9 | 2.6 | 0.00 | 0.00 | 0.00 | 66 | 1013.1 |
| 20260902062526 | 61 | 222 | 0.0 | 3.5 | 0.00 | 0.00 | 0.00 | 67 | 1012.8 |
| 20260902062024 | 61 | 0 | 0.9 | 3.5 | 0.00 | 0.00 | 0.00 | 68 | 1012.7 |
| 20260902061548 | 60 | 201 | 1.7 | 3.5 | 0.00 | 0.00 | 0.00 | 70 | 1012.7 |
| 20260902061024 | 60 | 230 | 1.7 | 3.5 | 0.00 | 0.00 | 0.00 | 70 | 1012.5 |
| 20260902060523 | 59 | 213 | 1.7 | 3.5 | 0.00 | 0.00 | 0.00 | 72 | 1012.5 |
| 20260902060104 | 59 | 179 | 1.7 | 4.3 | 0.00 | 0.00 | 0.00 | 72 | 1012.5 |
| 20260902055523 | 59 | 199 | 1.7 | 4.3 | 0.00 | 0.00 | 0.00 | 73 | 1012.4 |
| 20260902055025 | 59 | 188 | 0.9 | 3.5 | 0.00 | 0.00 | 0.00 | 72 | 1012.5 |
| 20260902054555 | 60 | 0 | 0.0 | 0.0 | 0.00 | 0.00 | 0.00 | 72 | 1012.4 |
| 20260902054033 | 60 | 0 | 0.0 | 0.0 | 0.00 | 0.00 | 0.00 | 71 | 1012.3 |
| 20260902053530 | 60 | 0 | 0.0 | 0.0 | 0.00 | 0.00 | 0.00 | 71 | 1012.2 |
| 20260902053057 | 60 | 0 | 0.0 | 0.0 | 0.00 | 0.00 | 0.00 | 71 | 1012.2 |
| 20260902052523 | 60 | 0 | 0.0 | 0.0 | 0.00 | 0.00 | 0.00 | 70 | 1012.3 |
| 20260902052023 | 61 | 0 | 0.0 | 0.0 | 0.00 | 0.00 | 0.00 | 69 | 1012.3 |
| 20260902051543 | 61 | 0 | 0.0 | 0.0 | 0.00 | 0.00 | 0.00 | 68 | 1012.2 |
| 20260902051025 | 62 | 0 | 0.0 | 0.0 | 0.00 | 0.00 | 0.00 | 68 | 1012.1 |
| 20260902050526 | 62 | 0 | 0.0 | 0.0 | 0.00 | 0.00 | 0.00 | 67 | 1012.1 |
| 20260902050059 | 62 | 0 | 0.0 | 0.0 | 0.00 | 0.00 | 0.00 | 67 | 1012.1 |
| 20260902045524 | 62 | 0 | 0.0 | 0.0 | 0.00 | 0.00 | 0.00 | 66 | 1012.2 |
| 20260902045024 | 63 | 0 | 0.0 | 1.7 | 0.00 | 0.00 | 0.00 | 65 | 1012.2 |
| 20260902044550 | 63 | 0 | 0.0 | 1.7 | 0.00 | 0.00 | 0.00 | 64 | 1012.2 |
| 20260902044029 | 63 | 238 | 0.9 | 1.7 | 0.00 | 0.00 | 0.00 | 63 | 1012.2 |
| 20260902043523 | 63 | 0 | 0.0 | 1.7 | 0.00 | 0.00 | 0.00 | 63 | 1012.2 |
| 20260902043053 | 64 | 0 | 0.0 | 2.6 | 0.00 | 0.00 | 0.00 | 63 | 1012.2 |
| 20260902042526 | 64 | 0 | 0.9 | 2.6 | 0.00 | 0.00 | 0.00 | 62 | 1012.2 |
| 20260902042025 | 64 | 272 | 0.9 | 2.6 | 0.00 | 0.00 | 0.00 | 61 | 1012.2 |
| 20260902041543 | 64 | 0 | 0.0 | 0.0 | 0.00 | 0.00 | 0.00 | 60 | 1012.1 |
| 20260902041025 | 64 | 0 | 0.0 | 0.0 | 0.00 | 0.00 | 0.00 | 59 | 1012.2 |
| 20260902040528 | 64 | 0 | 0.0 | 0.0 | 0.00 | 0.00 | 0.00 | 59 | 1012.3 |
| 20260902040055 | 65 | 0 | 0.0 | 0.0 | 0.00 | 0.00 | 0.00 | 60 | 1012.3 |
| 20260902035526 | 65 | 0 | 0.0 | 1.7 | 0.00 | 0.00 | 0.00 | 59 | 1012.2 |
| 20260902035029 | 66 | 0 | 0.0 | 1.7 | 0.00 | 0.00 | 0.00 | 58 | 1012.2 |
| 20260902034546 | 66 | 0 | 0.0 | 1.7 | 0.00 | 0.00 | 0.00 | 55 | 1012.1 |
| 20260902034028 | 66 | 0 | 0.0 | 1.7 | 0.00 | 0.00 | 0.00 | 57 | 1012.1 |
| 20260902033527 | 66 | 0 | 0.9 | 1.7 | 0.00 | 0.00 | 0.00 | 56 | 1012.0 |
| 20260902033046 | 66 | 241 | 0.0 | 0.9 | 0.00 | 0.00 | 0.00 | 55 | 1012.0 |
| 20260902032525 | 66 | 0 | 0.0 | 1.7 | 0.00 | 0.00 | 0.00 | 53 | 1011.9 |
| 20260902032027 | 67 | 0 | 0.0 | 1.7 | 0.00 | 0.00 | 0.00 | 52 | 1011.9 |
| 20260902031547 | 67 | 241 | 0.0 | 0.9 | 0.00 | 0.00 | 0.00 | 50 | 1011.7 |
| 20260902031029 | 68 | 0 | 0.0 | 0.0 | 0.00 | 0.00 | 0.00 | 49 | 1011.7 |
| 20260902030525 | 68 | 0 | 0.0 | 0.0 | 0.00 | 0.00 | 0.00 | 48 | 1011.7 |
| 20260902030053 | 69 | 0 | 0.0 | 0.0 | 0.00 | 0.00 | 0.00 | 48 | 1011.7 |
| 20260902025527 | 69 | 0 | 0.0 | 0.0 | 0.00 | 0.00 | 0.00 | 47 | 1011.5 |
| 20260902025027 | 69 | 0 | 0.0 | 1.7 | 0.00 | 0.00 | 0.00 | 47 | 1011.5 |
| 20260902024546 | 70 | 0 | 0.0 | 1.7 | 0.00 | 0.00 | 0.00 | 46 | 1011.5 |
| 20260902024026 | 70 | 241 | 0.0 | 1.7 | 0.00 | 0.00 | 0.00 | 47 | 1011.5 |
| 20260902023530 | 70 | 0 | 0.0 | 0.0 | 0.00 | 0.00 | 0.00 | 45 | 1011.6 |
| 20260902023048 | 70 | 0 | 0.0 | 0.0 | 0.00 | 0.00 | 0.00 | 45 | 1011.5 |
| 20260902022526 | 71 | 0 | 0.0 | 0.0 | 0.00 | 0.00 | 0.00 | 46 | 1011.5 |
| 20260902022033 | 71 | 0 | 0.0 | 0.0 | 0.00 | 0.00 | 0.00 | 46 | 1011.5 |
| 20260902021544 | 71 | 0 | 0.0 | 0.0 | 0.00 | 0.00 | 0.00 | 49 | 1011.5 |
| 20260902021025 | 71 | 0 | 0.0 | 0.0 | 0.00 | 0.00 | 0.00 | 46 | 1011.3 |
| 20260902020526 | 72 | 0 | 0.0 | 0.0 | 0.00 | 0.00 | 0.00 | 47 | 1011.3 |
| 20260902020043 | 73 | 0 | 0.0 | 0.0 | 0.00 | 0.00 | 0.00 | 46 | 1011.3 |
| 20260902015527 | 73 | 0 | 0.0 | 0.0 | 0.00 | 0.00 | 0.00 | 45 | 1011.3 |
| 20260902015026 | 74 | 0 | 0.0 | 0.0 | 0.00 | 0.00 | 0.00 | 45 | 1011.3 |
| 20260902014547 | 74 | 0 | 0.0 | 0.0 | 0.00 | 0.00 | 0.00 | 44 | 1011.3 |
| 20260902014031 | 75 | 0 | 0.0 | 0.0 | 0.00 | 0.00 | 0.00 | 43 | 1011.2 |
| 20260902013527 | 76 | 0 | 0.0 | 0.0 | 0.00 | 0.00 | 0.00 | 42 | 1011.1 |
| 20260902013048 | 77 | 0 | 0.0 | 0.0 | 0.00 | 0.00 | 0.00 | 41 | 1011.2 |
| 20260902012530 | 77 | 0 | 0.0 | 0.0 | 0.00 | 0.00 | 0.00 | 41 | 1011.2 |
| 20260902012023 | 78 | 0 | 0.0 | 0.0 | 0.00 | 0.00 | 0.00 | 41 | 1011.3 |
| 20260902011557 | 78 | 0 | 0.0 | 0.0 | 0.00 | 0.00 | 0.00 | 41 | 1011.3 |
| 20260902011024 | 79 | 0 | 0.0 | 0.0 | 0.00 | 0.00 | 0.00 | 41 | 1011.3 |
| 20260902010524 | 79 | 0 | 0.0 | 0.0 | 0.00 | 0.00 | 0.00 | 40 | 1011.3 |
| 20260902010043 | 79 | 0 | 0.0 | 0.9 | 0.00 | 0.00 | 0.00 | 40 | 1011.3 |
| 20260902005527 | 78 | 0 | 0.0 | 0.9 | 0.00 | 0.00 | 0.00 | 42 | 1011.3 |
| 20260902005025 | 78 | 0 | 0.0 | 1.7 | 0.00 | 0.00 | 0.00 | 44 | 1011.4 |
| 20260902004547 | 78 | 0 | 0.0 | 1.7 | 0.00 | 0.00 | 0.00 | 43 | 1011.4 |
| 20260902004032 | 78 | 0 | 0.0 | 2.6 | 0.00 | 0.00 | 0.00 | 42 | 1011.3 |
| 20260902003523 | 78 | 0 | 0.9 | 3.5 | 0.00 | 0.00 | 0.00 | 42 | 1011.3 |
| 20260902003044 | 78 | 238 | 0.9 | 3.5 | 0.00 | 0.00 | 0.00 | 42 | 1011.3 |
| 20260902002523 | 78 | 0 | 0.9 | 1.7 | 0.00 | 0.00 | 0.00 | 41 | 1011.2 |
| 20260902002023 | 78 | 0 | 0.0 | 2.6 | 0.00 | 0.00 | 0.00 | 43 | 1011.3 |
| 20260902001549 | 78 | 0 | 0.0 | 3.5 | 0.00 | 0.00 | 0.00 | 45 | 1011.4 |
| 20260902001025 | 77 | 0 | 0.0 | 3.5 | 0.00 | 0.00 | 0.00 | 44 | 1011.4 |
| 20260902000525 | 77 | 262 | 1.7 | 5.2 | 0.00 | 0.00 | 0.00 | 40 | 1011.5 |
| 20260902000044 | 78 | 354 | 0.9 | 5.2 | 0.00 | 0.00 | 0.00 | 41 | 1011.4 |
| 20260901235527 | 79 | 269 | 0.9 | 7.0 | 0.00 | 0.00 | 0.00 | 42 | 1011.4 |
| 20260901235025 | 79 | 323 | 1.7 | 7.0 | 0.00 | 0.00 | 0.00 | 39 | 1011.5 |
| 20260901234548 | 80 | 266 | 2.6 | 7.0 | 0.00 | 0.00 | 0.00 | 40 | 1011.4 |
| 20260901234024 | 80 | 294 | 0.9 | 3.5 | 0.00 | 0.00 | 0.00 | 37 | 1011.6 |
| 20260901233528 | 80 | 252 | 1.7 | 4.3 | 0.00 | 0.00 | 0.00 | 39 | 1011.6 |
| 20260901233050 | 80 | 244 | 1.7 | 4.3 | 0.00 | 0.00 | 0.00 | 38 | 1011.6 |
| 20260901232524 | 80 | 198 | 0.9 | 5.2 | 0.00 | 0.00 | 0.00 | 36 | 1011.6 |
| 20260901232024 | 80 | 233 | 0.9 | 6.1 | 0.00 | 0.00 | 0.00 | 37 | 1011.7 |
| 20260901231607 | 80 | 230 | 1.7 | 6.1 | 0.00 | 0.00 | 0.00 | 35 | 1011.6 |
| 20260901231025 | 80 | 226 | 1.7 | 6.1 | 0.00 | 0.00 | 0.00 | 34 | 1011.6 |
| 20260901230526 | 80 | 193 | 0.9 | 3.5 | 0.00 | 0.00 | 0.00 | 35 | 1011.7 |
| 20260901230056 | 80 | 227 | 0.9 | 3.5 | 0.00 | 0.00 | 0.00 | 35 | 1011.8 |
| 20260901225524 | 80 | 228 | 0.0 | 3.5 | 0.00 | 0.00 | 0.00 | 37 | 1011.8 |
| 20260901225024 | 81 | 225 | 0.9 | 5.2 | 0.00 | 0.00 | 0.00 | 33 | 1011.6 |
| 20260901224546 | 81 | 176 | 2.6 | 5.2 | 0.00 | 0.00 | 0.00 | 34 | 1011.7 |
| 20260901224024 | 81 | 233 | 1.7 | 4.3 | 0.00 | 0.00 | 0.00 | 38 | 1011.6 |
| 20260901223524 | 81 | 220 | 1.7 | 4.3 | 0.00 | 0.00 | 0.00 | 33 | 1011.6 |
| 20260901223047 | 81 | 187 | 0.9 | 7.0 | 0.00 | 0.00 | 0.00 | 35 | 1011.6 |
| 20260901222525 | 82 | 235 | 3.5 | 7.0 | 0.00 | 0.00 | 0.00 | 31 | 1011.6 |
| 20260901222024 | 82 | 213 | 1.7 | 7.0 | 0.00 | 0.00 | 0.00 | 34 | 1011.6 |
| 20260901221608 | 83 | 233 | 1.7 | 7.0 | 0.00 | 0.00 | 0.00 | 32 | 1011.6 |
| 20260901221028 | 83 | 185 | 0.9 | 6.1 | 0.00 | 0.00 | 0.00 | 31 | 1011.6 |
| 20260901220528 | 84 | 173 | 2.6 | 6.1 | 0.00 | 0.00 | 0.00 | 29 | 1011.6 |
| 20260901220115 | 84 | 0 | 0.9 | 5.2 | 0.00 | 0.00 | 0.00 | 30 | 1011.6 |
| 20260901215527 | 84 | 204 | 2.6 | 5.2 | 0.00 | 0.00 | 0.00 | 30 | 1011.7 |
| 20260901215025 | 84 | 0 | 0.0 | 6.1 | 0.00 | 0.00 | 0.00 | 28 | 1011.7 |
| 20260901214550 | 84 | 218 | 0.9 | 6.1 | 0.00 | 0.00 | 0.00 | 29 | 1011.8 |
| 20260901214028 | 84 | 186 | 1.7 | 5.2 | 0.00 | 0.00 | 0.00 | 33 | 1011.9 |
| 20260901213525 | 84 | 163 | 0.9 | 2.6 | 0.00 | 0.00 | 0.00 | 35 | 1011.9 |
| 20260901213105 | 84 | 0 | 0.9 | 3.5 | 0.00 | 0.00 | 0.00 | 37 | 1011.9 |
| 20260901212527 | 83 | 0 | 0.9 | 3.5 | 0.00 | 0.00 | 0.00 | 35 | 1012.1 |
| 20260901212029 | 83 | 0 | 0.9 | 5.2 | 0.00 | 0.00 | 0.00 | 32 | 1012.0 |
| 20260901211546 | 83 | 0 | 2.6 | 5.2 | 0.00 | 0.00 | 0.00 | 31 | 1012.0 |
| 20260901211027 | 82 | 279 | 2.6 | 7.0 | 0.00 | 0.00 | 0.00 | 30 | 1012.1 |
| 20260901210530 | 82 | 203 | 0.9 | 7.0 | 0.00 | 0.00 | 0.00 | 33 | 1012.2 |
| 20260901210044 | 82 | 168 | 2.6 | 7.0 | 0.00 | 0.00 | 0.00 | 32 | 1012.2 |
| 20260901205527 | 82 | 193 | 0.9 | 3.5 | 0.00 | 0.00 | 0.00 | 30 | 1012.1 |
| 20260901205029 | 82 | 326 | 0.9 | 4.3 | 0.00 | 0.00 | 0.00 | 32 | 1012.3 |
| 20260901204601 | 82 | 47 | 1.7 | 4.3 | 0.00 | 0.00 | 0.00 | 30 | 1012.5 |
| 20260901204027 | 82 | 0 | 0.0 | 2.6 | 0.00 | 0.00 | 0.00 | 32 | 1012.6 |
| 20260901203528 | 81 | 193 | 0.9 | 6.1 | 0.00 | 0.00 | 0.00 | 32 | 1012.5 |
| 20260901203045 | 81 | 131 | 0.9 | 6.1 | 0.00 | 0.00 | 0.00 | 35 | 1012.7 |
| 20260901202527 | 81 | 200 | 1.7 | 4.3 | 0.00 | 0.00 | 0.00 | 34 | 1012.8 |